[[{"header":{"parameterUnit":"m.s-1","parameterCategory":1,"la1":30.2992,"la2":30.254,"lo1":-89.0895,"lo2":-89.0443,"dy":0.0025,"dx":0.0025,"nx":19,"ny":19,"refTime":"2026-03-22T09:00:00:Z","depth":0,"parameterNumber":2,"parameterNumberName":"U-component_of_WINDS"},"data":[0,0,0,3.9871,3.9874,4.0019,4.0019,4.021,4.0212,0,0,0,0,0,0,0,0,0,0,0,3.983,3.9831,3.9871,3.9875,4.0019,4.0019,4.021,4.0212,0,0,0,0,0,0,0,0,0,0,0,3.9829,3.9831,3.9833,3.9875,4.0019,4.0019,4.0209,4.0099,0,0,0,0,0,0,0,0,0,0,3.9958,3.992,3.9831,3.9833,3.9876,4.0018,4.0019,4.0093,4.0106,4.0146,0,4.0181,0,4.0199,4.0225,4.0225,0,0,0,3.9874,3.991,3.9948,3.9833,3.9877,4.0018,3.9954,4.01,4.0114,4.0163,4.0184,4.0191,4.0202,4.0226,4.0227,4.046,4.0461,0,0,3.9866,3.9857,3.9938,3.9957,3.9932,3.9949,3.9958,4.0108,4.0132,4.0185,4.0195,4.0206,4.0227,4.0229,4.0459,4.046,0,0,0,3.9844,3.9852,3.9885,3.9949,3.9974,3.9953,3.9964,4.0125,4.0137,4.0197,4.0208,4.0228,4.0231,4.0458,4.0459,4.0506,0,0,0,3.9839,3.9838,3.9882,3.9878,3.9972,4.0051,3.9977,4.0126,4.0143,4.0207,4.0228,4.0232,4.0456,4.0459,4.0502,4.053,0,0,0,3.982,3.9836,3.9857,3.9877,3.9938,4.0049,4.0069,4.013,4.015,4.0225,4.0233,4.0456,4.0458,4.0498,4.0524,4.059,0,0,0,3.9798,3.9897,3.9858,3.9973,3.9937,4.0075,4.0068,4.0172,4.0242,4.0229,4.0457,4.0459,4.0497,4.0521,4.0586,4.0644,4.0667,0,0,3.9918,3.9911,3.9979,3.9949,4.0091,4.0054,4.0205,4.0278,4.0294,4.0404,4.041,4.0503,4.0524,4.0589,4.0796,4.0814,0,0,0,4.0014,4.0063,4.0103,4.0169,4.0226,4.0279,4.0329,4.0357,4.045,4.0348,4.0544,4.0557,4.0595,4.0624,4.0639,4.0674,4.0471,4.0471,4.0471,4.0172,4.0186,4.0301,4.0333,4.0397,4.0448,4.0502,4.0548,4.0545,4.0591,4.0624,4.0748,4.078,4.0792,4.0828,4.0655,4.0655,4.0655,4.0655,4.035,4.0423,4.0415,4.0523,4.0539,4.0631,4.0685,4.0679,4.0769,4.0723,4.0758,4.0709,4.0811,4.0843,4.0659,4.0658,4.0658,4.0657,4.0657,4.0457,4.0494,4.0524,4.0621,4.0695,4.0724,4.081,4.0821,4.0832,4.0866,4.0904,4.0903,4.0905,4.0883,4.0884,4.0884,4.0884,4.0885,4.0885,4.0555,4.0588,4.0658,4.0728,4.0772,4.0831,4.0885,4.0929,4.0982,4.0983,4.0983,4.0977,4.0817,4.0778,4.0892,4.089,4.089,4.0889,4.0889,4.0733,4.0695,4.0803,4.0847,4.093,4.1004,4.1016,4.1106,4.1144,4.1187,4.1172,4.1052,4.1047,4.1035,4.1002,4.1167,4.1167,4.1167,4.1167,4.0824,4.0822,4.0936,4.1005,4.1075,4.1097,4.1222,4.1265,4.1304,4.1329,4.1307,4.1264,4.1251,4.1254,4.1237,4.1207,4.142,4.1421,4.1421,4.0936,4.094,4.1043,4.1079,4.1145,4.1202,4.132,4.1403,4.1439,4.1431,4.135,4.1339,4.1271,4.1247,4.1239,4.1213,4.1158,0,0]},{"header":{"parameterUnit":"m.s-1","parameterCategory":1,"la1":30.2992,"la2":30.254,"lo1":-89.0895,"lo2":-89.0443,"dy":0.0025,"dx":0.0025,"nx":19,"ny":19,"refTime":"2026-03-22T09:00:00:Z","depth":0,"parameterNumber":3,"parameterNumberName":"V-component_of_WINDS"},"data":[0,0,0,-1.477,-1.4772,-1.4849,-1.4849,-1.4939,-1.494,0,0,0,0,0,0,0,0,0,0,0,-1.4742,-1.4742,-1.477,-1.4772,-1.4849,-1.4849,-1.4939,-1.494,0,0,0,0,0,0,0,0,0,0,0,-1.4742,-1.4742,-1.4743,-1.4772,-1.4849,-1.4849,-1.4939,-1.4884,0,0,0,0,0,0,0,0,0,0,-1.4811,-1.4779,-1.4742,-1.4743,-1.4773,-1.4848,-1.4849,-1.4881,-1.4887,-1.4901,0,-1.491,0,-1.4926,-1.4945,-1.4945,0,0,0,-1.4776,-1.4774,-1.48,-1.4743,-1.4773,-1.4848,-1.4815,-1.4885,-1.4891,-1.4908,-1.4912,-1.4915,-1.4928,-1.4946,-1.4946,-1.5008,-1.5008,0,0,-1.4772,-1.4753,-1.4795,-1.4804,-1.4791,-1.4813,-1.4818,-1.4889,-1.4891,-1.4912,-1.4918,-1.4929,-1.4946,-1.4947,-1.5008,-1.5008,0,0,0,-1.4757,-1.475,-1.4774,-1.48,-1.4814,-1.4815,-1.482,-1.4888,-1.4898,-1.4919,-1.493,-1.4947,-1.4948,-1.5008,-1.5008,-1.4994,0,0,0,-1.4755,-1.4741,-1.4772,-1.4761,-1.4813,-1.4852,-1.4818,-1.4893,-1.4902,-1.493,-1.4947,-1.4948,-1.5008,-1.5008,-1.4994,-1.499,0,0,0,-1.4739,-1.4739,-1.4748,-1.476,-1.4792,-1.4851,-1.4865,-1.4895,-1.4909,-1.4945,-1.4949,-1.5008,-1.5008,-1.4994,-1.499,-1.5001,0,0,0,-1.4717,-1.4734,-1.4748,-1.4772,-1.4791,-1.4842,-1.4865,-1.4904,-1.4934,-1.4947,-1.5008,-1.5008,-1.4994,-1.4991,-1.5001,-1.5006,-1.5006,0,0,-1.4728,-1.4735,-1.4751,-1.4765,-1.4808,-1.4832,-1.4874,-1.4919,-1.494,-1.4985,-1.4986,-1.4994,-1.499,-1.5001,-1.5016,-1.5016,0,0,0,-1.4748,-1.4759,-1.4775,-1.4802,-1.4838,-1.4868,-1.491,-1.4927,-1.4966,-1.4959,-1.5001,-1.5,-1.5007,-1.501,-1.501,-1.5018,-1.5009,-1.5009,-1.5009,-1.4735,-1.4762,-1.4791,-1.4827,-1.4854,-1.4897,-1.4921,-1.4952,-1.4971,-1.4981,-1.4993,-1.4999,-1.5002,-1.5002,-1.501,-1.4999,-1.4999,-1.4999,-1.4999,-1.4754,-1.4774,-1.48,-1.4837,-1.4865,-1.4897,-1.494,-1.4952,-1.4986,-1.4991,-1.4999,-1.5001,-1.5002,-1.501,-1.4998,-1.4998,-1.4998,-1.4998,-1.4998,-1.4748,-1.4763,-1.4784,-1.4828,-1.4859,-1.4896,-1.4927,-1.4952,-1.4976,-1.4984,-1.5,-1.5001,-1.5004,-1.499,-1.499,-1.499,-1.499,-1.499,-1.499,-1.4734,-1.4758,-1.4782,-1.4822,-1.4844,-1.4876,-1.4921,-1.4943,-1.4975,-1.4991,-1.4991,-1.5009,-1.4997,-1.4993,-1.4991,-1.499,-1.499,-1.499,-1.499,-1.4742,-1.4745,-1.478,-1.4802,-1.4853,-1.4882,-1.4915,-1.4959,-1.4981,-1.4996,-1.5013,-1.5,-1.5009,-1.5009,-1.5006,-1.5007,-1.5007,-1.5007,-1.5007,-1.4737,-1.4744,-1.4787,-1.4821,-1.4857,-1.489,-1.4931,-1.4967,-1.5004,-1.502,-1.5024,-1.5023,-1.5022,-1.5031,-1.5031,-1.5028,-1.5035,-1.5035,-1.5035,-1.4744,-1.4756,-1.4785,-1.4822,-1.4864,-1.4899,-1.4938,-1.4977,-1.502,-1.5037,-1.5033,-1.5032,-1.503,-1.5028,-1.5043,-1.5042,-1.5038,0,0]}]]